www.pogodaiklimat.ru

Погода и климат >> Архив погоды >> Россия >> Калмыкия >> Кетченеры


ПОГОДА в Кетченерах

  • Прогноз погоды в Кетченерах
  • Монитор погоды в Кетченерах
  • Климат города

АРХИВ ПОГОДЫ в Кетченерах

Время (UTC), дата Ветер
(напр.,м/с)
 
Видим.   Явления Облачность Т
(С)
Тd
(С)
f
(%)
Тe
(С)
Тes
(С)
Комфортность P
(гПа)
Po
(гПа)
Тmin
(С)
Tmax
(С)
R
(мм)
R24
(мм)
S
(см)
09 18.04 ЮВ 3 20 км 5/0
[Ac trans Ci fib]
+18.8 +10.1 57 +20 +29 1012.8 1005.9
15 18.04 ЮВ 2 20 км 8/0
[Ac trans Ci fib]
+20.9 +11.4 55 +24 +24 комфорт 1009.9 1003.2 +22.1
21 18.04 ЮВ 2 4000 м дымка ясно +9.3 +8.4 94 +7 +7 1009.5 1002.5
03 19.04 ЮВ 1 500 м туман ?/? +8.5 +8.4 99 +8 +8 1009.1 1002.1 +8.3
09 19.04 СЗ 7-14
{14}
20 км {ливн. осадки} 10/10 600 м
[Cb calv]
+12.9 +3.6 53 +10 +10 1010.9 1003.9
15 19.04 СЗ 3 20 км 9/9 600 м
[Cb calv]
+12.5 +5.0 60 +11 +11 1014.5 1007.5 +14.5 2
21 19.04 СЗ 4 20 км 10/10 600 м
[Cb calv]
+6.4 +2.2 74 +3 +3 1016.0 1008.8
03 20.04 СЗ 4 20 км 4/4 600 м
[Cb calv]
+4.7 +2.0 83 +1 +1 1017.7 1010.5 +4.7
09 20.04 СЗ 4 20 км 8/0
[Ac trans Ci fib]
+6.7 -0.2 61 +3 +10 1020.7 1013.5
15 20.04 СВ 2 20 км 3/0
[Ci fib]
+10.1 -1.7 44 +9 +10 1020.1 1013.0 +10.7
21 20.04 штиль 0 20 км ясно +2.2 -1.9 74 +1 +1 1021.5 1014.2
03 21.04 В 2 20 км 9/0
[Ac trans Ci fib]
-1.3 -3.3 86 -5 -5 1019.9 1012.5 -1.8
09 21.04 ЮВ 3 20 км 10/10 600 м
[Cb calv]
+9.0 +0.7 56 +7 +7 1018.4 1011.3
15 21.04 ЮВ 2 20 км 10/10 600 м
[Cb calv]
+10.4 +2.6 58 +9 +9 1013.1 1006.1 +10.9
21 21.04 штиль 0 2000 м дымка {ливн. осадки} 10/10 300 м
[Cb calv]
+7.7 +7.5 99 +7 +7 1010.4 1003.4
03 22.04 З 3 4000 м дымка {ливн. осадки} 8/8 600 м
[Sc]
+4.0 +3.2 95 0 0 1010.6 1003.5 +3.9 16
09 22.04 Ю 7-12
{15}
10 км слабый ливневой дождь 9/9 300 м
[Cb calv]
+7.4 +4.6 82 +3 +3 1008.1 1001.0
15 22.04 Ю 6 20 км в посл. час ливневой дождь 9/4 600 м
[Cb calv As trans]
+8.0 +2.4 68 +4 +4 1012.9 1005.8 +10.4 3
21 22.04 З 5 20 км ясно +6.2 0.0 64 +2 +2 1015.1 1008.0
03 23.04 З 4 20 км 10/0
[Ac trans Ci fib]
+5.1 +2.1 81 +1 +1 1014.9 1007.7 +4.7
09 23.04 штиль 0 20 км в посл. час ливневой дождь 10/10 600 м
[Cb calv]
+8.8 +3.5 69 +8 +8 1013.0 1006.0
15 23.04 Ю 2 20 км 6/3 600 м
[Cb calv Ac trans Ci fib]
+10.8 +5.4 69 +10 +10 1002.4 995.4 +11.0 0.5
21 23.04 штиль 0 20 км {ливн. осадки} 10/10 600 м
[Cb calv]
+8.0 +6.0 87 +7 +7 1001.6 994.6
03 24.04 С 9-16
{17}
20 км 9/9 600 м
[Cb calv]
+5.3 +1.6 77 -1 -1 1000.4 993.3 +5.2 0.8
09 24.04 СЗ 5-13
{16}
20 км {ливн. осадки} 10/10 600 м
[Cb calv]
+8.2 +3.6 73 +5 +5 1007.6 1000.6
15 24.04 З 2 20 км 8/3 600 м
[Sc Ac trans Ci fib]
+11.6 +5.1 64 +11 +11 1011.7 1004.7 +13.7 0.0
21 24.04 З 4
{12}
20 км ясно +6.6 +2.0 72 +3 +3 1015.6 1008.4
03 25.04 СЗ 8-14
{14}
20 км 3/1 600 м
[Cb calv Ac trans]
+6.0 +2.5 78 +1 +1 1015.4 1008.2 +5.1

 

Местоположение метеостанции Кетченеры (Калмыкия, Россия): широта 47.32 долгота 44.57 высота над уровнем моря 58 м.

В архиве по умолчанию представлена погода в Кетченерах за последнюю неделю. Архивные данные за месяц целиком и за предыдущие месяцы, начиная с января 2011 года, Вы можете получить, выбрав интересующий диапазон дат из раскрывающегося списка и нажав кнопку "Ввод!".

Внимание! Время в таблицах - всемирное. Для получения местного времени необходимо прибавить поправку, которая в Кетченерах равна 3 ч.

Смотрите также архив погоды в соседних городах и на ближайших метеорологических станциях:

Погода в Малых Дербетах (Калмыкия, Россия) (69 км)
Погода в Элисте (Калмыкия, Россия) (107 км)
Погода в Ремонтном (Ростовская область, Россия) (108 км)
Погода в Котельниково (Волгоградская область, Россия) (112 км)
Погода в Юсте (Калмыкия, Россия) (134 км)
Погода в Яшкуле (Калмыкия, Россия) (140 км)
Погода в Черный Яр (Астраханская область, Россия) (143 км)
Погода в Волгограде город (Волгоградская область, Россия) (150 км)
Погода в Утте (Калмыкия, Россия) (153 км)
Погода в Нижнем Чире (Волгоградская область, Россия) (156 км)

Пояснения к столбцам:

Ветер - указаны скорость ветра в м/с - средняя за 10 мин, порывы в срок и между сроками (в фигурных скобках) и направление, откуда дует ветер: С - северный, СВ - северо-восточный, В - восточный, ЮВ - юго-восточный, Ю - южный, ЮЗ - юго-западный, З - западный, СЗ - северо-западный.
Видимость - горизонтальная дальность видимости в метрах или километрах. При видимости от 1 до 10 км при отсутствии осадков обычно наблюдается дымка, при ухудшении видимости до 1 км и менее - туман. В сухую погоду видимость может ухудшаться дымом, пылью или мглою.
Явления - указаны атмосферные явления, наблюдавшиеся в срок или в последний час перед сроком; фигурными скобками обозначены явления, наблюдавшиеся между сроками (за 1-3 часа до срока); квадратными скобками обозначены град или гололедные отложения с указанием их диаметра в мм.
Облачность - указаны через наклонную черту общая и нижняя облачность в баллах и высота нижней границы облаков в метрах; квадратными скобками обозначены формы облаков: Ci - перистые, Cs - перисто-слоистые, Cc - перисто-кучевые, Ac - высококучевые, As - высокослоистые, Sc - слоисто-кучевые, Ns - слоисто-дождевые, Cu - кучевые, Cb - кучево-дождевые. Подробнее классификацию облаков см. в Атласе облаков (PDF).
T - Температура воздуха - температура, измеренная на высоте 2 м над землей.
Td - Температура точки росы - температура, при понижении до которой содержащийся в воздухе водяной пар достигнет насыщения.
f - Относительная влажность воздуха - влажноcть воздуха, измеренная на высоте 2 м над землей.
Te - Эффективная температура - температура, которую ощущает одетый по сезону человек в тени. Характеристика душности погоды. При расчете учитывается влияние влажности воздуха и скорости ветра на теплоощущения человека.
Tes - Эффективная температура на солнце - температура, которую ощущает человек, с поправкой на солнечный нагрев. Характеристика знойности погоды. Зависит от высоты солнца над горизонтом, облачности и скорости ветра. Ночью, в пасмурную погоду, а также при ветре 12 м/с и более поправка равна нулю.
P - Атмосферное давление - приведенное к уровню моря атмосферное давление.
Po - Атмосферное давление - измеренное на уровне метеостанции атмосферное давление.
Tmin - Минимальная температура - минимум температуры воздуха на высоте 2 м над землей.
Tmax - Максимальная температура - максимум температуры воздуха на высоте 2 м над землей.
R - Количество осадков - Количество выпавших осадков за период времени, мм. При наведении курсора мыши на число - период времени, за который выпало указанное количество осадков.
R24 - Количество осадков - Количество выпавших осадков за 24 часа, мм.
S - Снежный покров - Высота снежного покрова, см. При наведении курсора мыши на число - состояние снежного покрова и степень покрытия местности в баллах.